Regional Weather Roundup
Issued by NWS Boston, MA

Current Version | Previous Version | Text Only | Print | Product List | Glossary Off
Versions: 1 2 3 4 5 6 7 8 9 10 11 12 13 14 15 16 17 18 19 20 21 22 23 24 25 26 27
000 ASUS41 KBOX 230610 RWRBOX REGIONAL WEATHER ROUNDUP NATIONAL WEATHER SERVICE TAUNTON MA 200 AM EDT MON OCT 23 2017 NOTE: "FAIR" INDICATES FEW OR NO CLOUDS BELOW 12,000 FEET WITH NO SIGNIFICANT WEATHER AND/OR OBSTRUCTIONS TO VISIBILITY. MAZALL-230700- EASTERN MASSACHUSETTS CITY SKY/WX TMP DP RH WIND PRES REMARKS BOSTON CLOUDY 55 55 100 CALM 30.40F 6HR MIN TEMP: 55; 6HR MAX TEMP: 56; BEVERLY CLOUDY 55 53 93 N3 30.39F LAWRENCE CLOUDY 58 53 84 CALM 30.42F BEDFORD CLOUDY 55 51 86 CALM 30.39F BLUE HILL N/A 54 52 93 CALM 30.39F NORWOOD CLOUDY 57 56 96 CALM 30.39F FOG MARSHFIELD FOG 57 57 100 CALM 30.40S VSB 1/4 PLYMOUTH FOG 56 54 93 CALM 30.40F VSB 1/4 TAUNTON FOG 52 51 97 CALM 30.39F VSB 1/4 NEW BEDFORD FOG 48 47 96 CALM 30.39F VSB 1/4 $$ MAZALL-230700- CAPE COD AND THE ISLANDS CITY SKY/WX TMP DP RH WIND PRES REMARKS FALMOUTH PTCLDY 46 46 100 CALM 30.41S FOG HYANNIS PTCLDY 50 49 96 CALM 30.40S FOG CHATHAM CLEAR 58 58 100 SW3 30.41F PROVINCETOWN LGT RAIN 56 55 97 W5 30.41F VSB 1/4 NANTUCKET FOG 55 55 100 S3 30.40F VSB 1/4 MARTHAS VNYRD FOG 44 44 100 CALM 30.40S VSB 1/4 $$ MAZALL-230700- CENTRAL AND WESTERN MASSACHUSETTS CITY SKY/WX TMP DP RH WIND PRES REMARKS WORCESTER FOG 50 49 96 CALM 30.39F VSB<1/4 6HR MIN TEMP: 50; 6HR MAX TEMP: 59; FITCHBURG CLOUDY 56 55 97 CALM 30.40F FOG ORANGE FOG 41 41 100 CALM 30.39S VSB 1/2 SPRINGFIELD CLEAR 43 41 93 CALM 30.36F FOG WESTFIELD CLEAR 43 43 100 CALM 30.37S FOG NORTH ADAMS CLEAR 50 42 74 SE6 30.35F PITTSFIELD CLEAR 43 42 97 CALM 30.35F $$ RIZALL-230700- RHODE ISLAND CITY SKY/WX TMP DP RH WIND PRES REMARKS PROVIDENCE CLOUDY 51 50 96 CALM 30.40F FOG 6HR MIN TEMP: 51; 6HR MAX TEMP: 60; NEWPORT FOG 53 53 100 CALM 30.38F VSB 1/4 BLOCK ISLAND PTCLDY 59 57 93 S8 30.39F SMITHFIELD FOG 51 51 100 NE3 30.40F VSB 1/4 WESTERLY FOG 51 50 96 CALM 30.39F VSB 1/4 $$ CTZALL-230700- CONNECTICUT CITY SKY/WX TMP DP RH WIND PRES REMARKS BRADLEY INTL PTCLDY 46 45 96 CALM 30.37F 6HR MIN TEMP: 46; 6HR MAX TEMP: 63; HARTFORD CLEAR 48 47 96 CALM 30.38R FOG BRIDGEPORT CLEAR 54 51 90 CALM 30.36F DANBURY MOCLDY 46 44 93 CALM 30.37F GROTON PTCLDY 52 50 93 NW3 30.38F FOG NEW HAVEN CLEAR 49 47 93 N3 30.37F CHESTER FOG 55 55 100 CALM 30.38S VSB<1/4 MERIDEN CLEAR 44 44 100 CALM 30.37F FOG WILLIMANTIC CLEAR 48 46 93 CALM 30.39F OXFORD CLEAR 52 52 100 S3 30.38F $$ MEZ002-015-021-024-NHZ003-005-008-011-012-014-VTZ005-008-230700- NORTHERN NEW ENGLAND CITY SKY/WX TMP DP RH WIND PRES REMARKS PORTLAND ME CLOUDY 52 51 97 VRB3 30.41F FOG 6HR MIN TEMP: 52; 6HR MAX TEMP: 55; BANGOR ME CLOUDY 50 42 74 NW5 30.42F CONCORD NH CLOUDY 53 51 93 CALM 30.40F MANCHESTER NH CLOUDY 55 53 93 CALM 30.39F NASHUA NH CLOUDY 55 53 93 CALM 30.40F PORTSMOUTH NH CLOUDY 55 52 90 CALM 30.39F JAFFREY NH FOG 48 48 100 CALM 30.39F VSB 1/4 KEENE NH FOG 41 37 87 S3 30.38F VSB 1/2 BURLINGTON VT CLEAR 64 42 44 S10G21 30.26S MT. WASHINGTON PTCLDY 46 27 46 SW40G51 N/A $$ NYZ052-076-230700- EASTERN NEW YORK CITY SKY/WX TMP DP RH WIND PRES REMARKS ALBANY PTCLDY 49 42 77 CALM 30.31F 6HR MIN TEMP: 49; 6HR MAX TEMP: 66; NEW YORK CITY MOCLDY 62 59 90 CALM 30.35S 6HR MIN TEMP: 61; 6HR MAX TEMP: 69; $$ ANZALL-230700- MARINE OBSERVATIONS STATION/POSITION TIME TEMP WIND PRES VSBY WAVE AIR SEA DIR/SP/G HT/PER (UTC) (F) (DEG/KT/KT) (MB) (MI) (FT/S) BOSTON BUOY 0550 55 59 290/ 4/ 8 1029.3F 1/11 BUZZARDS BAY 0500 62 190/ 6/ 6 1029.9F NANTUCKET SOUND 0550 61 62 190/ 6/ 6 1029.4F 1 MASS BAY-STELLWA 0504 55 59 280/ 2/ 4 1028.8R 2/ 5 ISLE OF SHOALS 0500 54 340/ 6/ 7 1029.4S S OF BLOCK IS NOT AVBL $$ ......................KEY......................... SKY/WX - SKY CONDITION/PRESENT WEATHER TMP - TEMPERATURE IN FAHRENHEIT DWPT - DEWPOINT IN FAHRENHEIT RH - RELATIVE HUMIDITY IN PERCENT WIND - DIRECTION AND SPEED IN MPH PRES - MEAN SEA LEVEL PRESSURE IN INCHES OF HG WCI - WIND CHILL INDEX VSB - VISIBILITY IN MILES HX - HEAT INDEX TC - TEMPERATURE IN CELSIUS VRB - VARIABLE WIND DIRECTION N/A - NOT AVAILABLE

USA.gov is the U.S. government's official web portal to all federal, state and local government web resources and services.